[Date Prev][Date Next][Thread Prev][Thread Next] - [Date Index][Thread Index][Author Index]
2 Line ISSKeps 12-25
- Subject: [sarex] 2 Line ISSKeps 12-25
- From: "Dave Larsen PhD" <doc@xxxxxxxxxxx>
- Date: Fri, 24 Dec 2004 16:37:57 -0800
ISS
1 25544U 98067A 04359.79316169 .00021999 00000-0 17047-3 0 4349
2 25544 51.6394 72.7103 0003817 132.7923 328.0972 15.71764973348260
----
Via the sarex mailing list at AMSAT.ORG courtesy of AMSAT-NA.
To unsubscribe, send "unsubscribe sarex" to Majordomo@amsat.org
AMSAT Home